Regional Weather Roundup
Issued by NWS

Home | Current Version | Previous Version | Graphics & Text | Print | Product List | Glossary On
Versions: 1 2 3 4 5 6 7 8 9 10 11 12 13 14 15 16 17 18 19 20 21 22 23 24 25 26 27 28 29 30 31 32 33 34 35 36 37 38 39 40 41 42 43 44 45 46 47 48 49 50
316
ASUS43 KLOT 250708
RWRIL

ILLINOIS REGIONAL WEATHER ROUNDUP
NATIONAL WEATHER SERVICE CHICAGO/ROMEOVILLE IL
200 AM CDT SUN SEP 25 2016

NOTE: "FAIR" INDICATES FEW OR NO CLOUDS BELOW 12,000 FEET WITH NO
SIGNIFICANT WEATHER AND/OR OBSTRUCTIONS TO VISIBILITY.

* THESE STATIONS ARE NOT UNDER NWS QUALITY CONTROL. THEY ALSO MAY NOT
  REPORT WEATHER SUCH AS PRECIPITATION OR FOG.

ILZ001-002-007-009-015-016-024-250800-
NORTHWEST ILLINOIS

CITY           SKY/WX    TMP DP  RH WIND       PRES   REMARKS
MOLINE         CLOUDY    68  65  90 E8        30.05S
STERLING*      MOCLDY    65  64  97 E5        30.08S
SAVANNA*       MOCLDY    65  63  92 NE3       30.07S
$$

ILZ003-004-008-010-011-017-018-250800-
NORTH CENTRAL ILLINOIS

CITY           SKY/WX    TMP DP  RH WIND       PRES   REMARKS
ROCKFORD       PTCLDY    65  63  93 SE6       30.11F
FREEPORT*      MOCLDY    63  62  96 CALM      30.12R FOG
ROCHELLE*      CLEAR     66  64  92 SE6       30.11R
DE KALB*       CLEAR     66  64  93 SE8       30.12S
$$

ILZ005-006-012>014-019>023-250800-
NORTHEAST ILLINOIS

CITY           SKY/WX    TMP DP  RH WIND       PRES   REMARKS
CHICAGO-OHARE  CLEAR     66  62  87 SE7       30.12S
CHICAGO-MIDWAY CLEAR     69  61  75 SE8       30.12S
AURORA         PTCLDY    67  64  90 SE5       30.11F
LANSING*       CLEAR     66  62  87 SE7       30.13S
JOLIET*        PTCLDY    69  65  87 SE6       30.12R
WAUKEGAN       CLEAR     67  63  87 SE6       30.12S
DUPAGE AIRPORT CLEAR     67  62  84 E7        30.11S
KANKAKEE*      PTCLDY    67  64  91 E3        30.13S
WHEELING       CLEAR     66  62  87 SE5       30.13S
MORRIS*        CLEAR     67  65  91 SE5       30.10S
ROMEOVILLE*    PTCLDY    66  65  96 SE6       30.12S
NORTHERLY ISL    N/A     68  62  81 SE9         N/A
$$

LMZ740>746-250800-
SOUTHERN LAKE MICHIGAN

STATION/POSITION SKY/WX   TEMP    WIND        PRES    VSBY  WAVE
                          AIR SEA DIR/SP/G                  HT/PER
                          (F)     (DEG/KT/KT) (MB)    (MI)  (FT/S)
SOUTHERN BUOY              68 72  130/ 16/ 19 1019.9F         3/ 4
WILMETTE HARBOR            68 65  170/ 10/ 14   N/A           3/ 4
HARRISON CRIB              71     140/ 18/ 19   N/A
BURNHAM HARBOR             68     150/  6/ 10   N/A
CALUMET HARBOR             69     130/  9/ 12 1019.6F
BURNS HARBOR               68     140/  8/ 18 1020.7F
MICHIGAN CITY              66     110/ 10/ 11   N/A
MICHIGAN CITY 6N           66 69  140/ 12/ 14   N/A           1/ 2
ST. JOSEPH                 64 67  120/ 12/ 14 1020.8R         1/ 2
$$

ILZ025>027-034>036-040-047-049-050-058-095>099-250800-
WEST-CENTRAL ILLINOIS

CITY           SKY/WX    TMP DP  RH WIND       PRES   REMARKS
QUINCY         CLEAR     71  66  84 SE7       30.03F
GALESBURG*     CLEAR    N/A N/A N/A SE5       30.06S
MACOMB*        CLEAR     66  65  97 SE3       30.07S FOG
JACKSONVILLE*  CLEAR     75  67  75 S6        30.06S
PITTSFIELD*    CLEAR     70  67  90 SE3       30.06F
$$

ILZ028>032-037-038-041>044-048-051>054-059>061-250800-
CENTRAL ILLINOIS

CITY           SKY/WX    TMP DP  RH WIND       PRES   REMARKS
PONTIAC        CLEAR     69  68  97 SE8       30.11F
BLOOMINGTON    CLEAR     69  66  90 SE8       30.11S
DECATUR        CLEAR     68  65  90 SE5       30.09S
PEORIA         CLEAR     72  68  87 SE6       30.07F
LACON*         CLEAR     65  63  93 CALM      30.07F
LINCOLN*       PTCLDY    70  66  88 CALM      30.08S
SPRINGFIELD    CLEAR     71  65  81 SE5       30.07S
TAYLORVILLE    CLEAR     70  65  84 SE5       30.08R
$$

ILZ033-039-045-046-055>057-062-063-250800-
EAST-CENTRAL ILLINOIS

CITY           SKY/WX    TMP DP  RH WIND       PRES   REMARKS
CHAMPAIGN      CLEAR     67  65  93 E7        30.11R FOG
RANTOUL*       PTCLDY    68  66  93 CALM      30.12R FOG
MATTOON        CLEAR     70  67  90 SE6       30.09S
PARIS*         PTCLDY    69  67  96 CALM      30.11F
$$

ILZ079-100>102-250800-
SOUTHWEST ILLINOIS

CITY           SKY/WX    TMP DP  RH WIND       PRES   REMARKS
ALTON          CLEAR     68  67  95 CALM      30.06F
BELLEVILLE     CLEAR     70  70 100 E1        30.05F
CAHOKIA*       CLEAR     70  67  90 CALM      30.05S FOG
SPARTA*        CLEAR     70  68  93 SE5       30.07F
$$

ILZ064>066-069>071-074>076-080>082-084>086-088>090-092>094-250800-
SOUTH-CENTRAL ILLINOIS

CITY           SKY/WX    TMP DP  RH WIND       PRES   REMARKS
CARBONDALE     FOG       68  68 100 CALM      30.07S VSB 1
CAIRO*         CLEAR     68  68  99 CALM      30.06S
EFFINGHAM*     CLEAR     69  69 100 E5        30.10S
MARION         CLEAR     72  72 100 CALM      30.07F FOG
MT. VERNON     CLEAR     66  61  82 NE5       30.09S
CENTRALIA*     CLEAR     67  67  99 CALM      30.07S FOG
SALEM*         CLEAR     72  67  83 CALM      30.08S
METROPOLIS*    PTCLDY    69  68  98 CALM      30.08R FOG
$$

ILZ067-068-072-073-078-083-087-091-250800-
SOUTHEAST ILLINOIS

CITY           SKY/WX    TMP DP  RH WIND       PRES   REMARKS
LAWRENCEVILLE  CLEAR     69  66  90 CALM      30.09F FOG
FLORA*         CLEAR     69  66  90 CALM      30.08S
FAIRFIELD*       N/A     70  67  90 CALM      30.07S
HARRISBURG*    CLEAR     68  67  99 CALM      30.08S FOG
ROBINSON*      FOG       64  64 100 CALM      30.10F VSB 3/4
CARMI*         CLEAR     65  65  99 CALM      30.07F FOG
$$

ABBREVIATIONS USED IN REMARKS
   TC - TEMPERATURE IN CELSIUS
  WCI - WIND CHILL INDEX
   HX - HEAT INDEX
  VSB - VISIBILITY
$$





USA.gov is the U.S. government's official web portal to all federal, state and local government web resources and services.